Location: Sluknov
(51.0170°N, 14.4670°E)
Time: 09:39:26
(UTC+01:00)

ARIANE 6 FM1 Upper Stage - Pass Details

Date: 19 February 2026
Orbit: 523 x 607 km, 62.0° (Epoch: 7 March)

Event Time Altitude Azimuth Distance (km) Brightness Sun altitude
Rises 18:37:22 0° 309° (NW) 2,660 6.9 -12.0°
Reaches altitude 10° 18:39:38 10° 302° (WNW) 1,767 6.1 -12.3°
Maximum altitude 18:43:20 39° 232° (SW) 795 3.9 -12.9°
Drops below altitude 10° 18:47:03 10° 163° (SSE) 1,769 5.0 -13.5°
Sets 18:49:20 0° 156° (SSE) 2,664 5.9 -13.8°
